CZ-2D DEB (43103 NORAD) Tracking and Keplerian Element Data

This shows tracking and keplerian element data for the satellite.

Feedback or suggestion? Click here.




ElementValue
Catalog43103
NameCZ-2D DEB
Epoch Orbit443
Epoch Day38.67078993
Epoch Year2018
RAAN115.7252
Inclination97.7136
Eccentricity0.0039607
Argument of Perigee94.1758
Mean Anonmoly266.3966
Mean Motion15.03435191
Decay Rate8.67E-06
L11 43103U 18002E 18038.67078993 .00000867 00000-0 67236-4 0 9990
L22 43103 97.7136 115.7252 0039607 94.1758 266.3966 15.03435191 4439

Live tracking and technical data element details for CZ-2D DEB (NORAD 43103). CZ-2D DEB can be tracked NOW for your location showing map with azimuth and elevation plus other details from your city location.

Track the satellite on the map from your city or location and see movement details for azimuth, elevation, latitude, longitude, range, height, and movement on the map or in text.







IsCatalogInMostPopularTable: catalog: 43103, numindb: 125
Update: records affected: 1



GetName: 43103 CZ-2D DEB

Hit Count: updated at: Mon, 19 Nov 2018 13:10:02 GMT